Regional Weather Roundup
Issued by NWS Northern Indiana

Home | Current Version | Previous Version | Text Only | Print | Product List | Glossary On
Versions: 1 2 3 4 5 6 7 8 9 10 11 12 13 14 15 16 17 18 19 20 21 22 23 24 25 26 27 28 29 30 31 32 33 34 35 36 37 38 39 40 41 42 43 44 45 46 47 48 49 50
000
ASUS43 KIWX 220810
RWRIWX

KIWX WEATHER ROUNDUP
NATIONAL WEATHER SERVICE NORTHERN INDIANA
400 AM EDT TUE MAY 22 2018

NOTE: "FAIR" INDICATES FEW OR NO CLOUDS BELOW 12,000 FEET WITH NO
SIGNIFICANT WEATHER AND/OR OBSTRUCTIONS TO VISIBILITY.

* THESE STATIONS ARE NOT UNDER NWS QUALITY CONTROL. THEY ALSO MAY NOT
  REPORT WEATHER SUCH AS PRECIPITATION OR FOG.

INZ001>027-220900-
NORTHERN INDIANA

CITY           SKY/WX    TMP DP  RH WIND       PRES   REMARKS
GARY*          CLOUDY    54  54 100 CALM      29.97F FOG
VALPARAISO     FOG       63  62  97 E3        29.97F VSB<1/4
LAPORTE*       FOG       60  60  99 SE3       29.98S VSB 1/2
KNOX*          CLOUDY    63  61  94 CALM      29.97S
SOUTH BEND     CLOUDY    59  58  96 S5        29.98S FOG
GOSHEN         CLOUDY    58  57  97 CALM      29.98S FOG
ROCHESTER*     CLOUDY    64  64 100 SE3       29.98S FOG
WARSAW*        FAIR      55  55 100 CALM      29.99S FOG
AUBURN*        CLOUDY    54  54 100 CALM      30.00S FOG
FORT WAYNE     MOCLDY    57  56  96 CALM      30.00S FOG
PERU/GRISSOM   FAIR      65  65 100 SW7       29.98S
MARION*        CLOUDY    64  64  98 CALM      30.00S FOG

$$
INZ028>050-220900-
CENTRAL INDIANA

CITY           SKY/WX    TMP DP  RH WIND       PRES   REMARKS
LAFAYETTE      MOCLDY    64  64 100 CALM      29.98S
KOKOMO*        MOCLDY    67  65  93 SW7       30.00S
MUNCIE*        CLOUDY    68  65  90 S6        30.01R
INDIANAPOLIS   FAIR      65  65 100 SW7       30.00S

$$
MIZ043>046-050>051-056>058-064>065-071>073-077>080-220900-
SOUTHWEST LOWER MICHIGAN

CITY           SKY/WX    TMP DP  RH WIND       PRES   REMARKS
BATTLE CREEK   LGT RAIN  55  53  93 S5        29.98F
BENTON HARBOR  CLOUDY    61  59  93 CALM      29.96F FOG
COLDWATER*     MOCLDY    55  54  96 CALM      29.99R
HILLSDALE*     MOCLDY    52  50  93 S3        29.99R FOG
GRAND RAPIDS   CLOUDY    54  53  97 E5        29.98  FOG
KALAMAZOO      FAIR      57  54  89 S5        29.97F FOG
STURGIS*       MOCLDY    55  54  95 CALM      29.98S FOG
THREE RIVERS*  CLOUDY    56  55  97 CALM      29.98F FOG

$$
OHZ001>008-015>018-024>025-220900-
NORTHWEST OHIO

CITY           SKY/WX    TMP DP  RH WIND       PRES   REMARKS
DEFIANCE       FAIR      55  53  93 CALM      29.99S
FINDLAY        MOCLDY    64  62  93 S3        29.98S
TOLEDO EXPRESS MOCLDY    54  54 100 CALM      29.97F FOG
TOLEDO METCALF MOCLDY    56  53  90 CALM      29.99F
LIMA           MOCLDY    65  64  97 SW8       30.00S

$$
AND FOR LAKE MICHIGAN COASTAL AND OPEN LAKE BUOY OBSERVATIONS

STATION/POSITION TEMP    WIND        PRES    VSBY  WAVE
                 AIR SEA DIR/SP/G                  HT/PER
                 (F)     (DEG/KT/KT) (MB)    (MI)  (FT/S)
CALUMET HARBOR    50     350/  4/  5 1014.6S
BURNS HARBOR      53        CALM     1015.2F
SAINT JOSEPH      57      CALM  /  5 1015.9
4 MI NW BRIDGMAN  54 53  310/  4/  6 1015.1          1
MICHIGAN CITY     51 53  320/  6/  8   N/A           1

$$
&&




USA.gov is the U.S. government's official web portal to all federal, state and local government web resources and services.